Location: Newark
(41.0400°S, 62.7845°W)
Time: 09:05:58
(UTC+00:00)

Transit 2A - Pass Details

Date: 02 December 2021
Orbit: 591 x 967 km, 66.7° (Epoch: 19 January)

Event Time Altitude Azimuth Distance (km) Brightness Sun altitude
Rises 02:42:34 0° 224° (SW) 2,866 10.0 -24.4°
Reaches altitude 10° 02:45:10 10° 239° (WSW) 1,970 8.8 -24.6°
Enters shadow 02:48:27 22° 287° (WNW) 1,362 7.3 -24.8°
Maximum altitude 02:48:35 22° 290° (WNW) 1,362 - -24.8°
Drops below altitude 10° 02:52:06 10° 341° (NNW) 2,042 - -25.0°
Sets 02:54:51 0° 355° (N) 3,000 - -25.2°
